Regional Weather Roundup
Issued by NWS

Home | Current Version | Previous Version | Text Only | Print | Product List | Glossary On
Versions: 1 2 3 4 5 6 7 8 9 10 11 12 13 14 15 16 17 18 19 20 21 22 23 24 25 26 27 28 29 30 31 32 33 34 35 36 37 38 39 40 41 42 43 44 45 46 47 48 49 50
000
ASUS45 KCYS 222110
RWRWY

WYOMING REGIONAL WEATHER ROUNDUP
NATIONAL WEATHER SERVICE CHEYENNE WY
200 PM MST MON DEC 22 2014

NOTE:  "FAIR" INDICATES FEW OR NO CLOUDS BELOW 12,000 FEET
WITH NO SIGNIFICANT WEATHER AND/OR OBSTRUCTIONS TO VISIBILITY.

WYZ001-222200-
YELLOWSTONE NATIONAL PARK

CITY           SKY/WX    TMP DP  RH WIND       PRES   REMARKS
LK YELLOWSTONE   N/A     21  14  74 W7        29.87R WCI  12
W YELLOWSTONE  NOT AVBL

$$
WYZ002>013-054>058-071-098>099-222200-
NORTHERN WYOMING

CITY           SKY/WX    TMP DP  RH WIND       PRES   REMARKS
JACKSON        CLOUDY    30  18  59 W14G28    29.87R WCI  20
CODY           CLOUDY    34  27  75 N21G26    29.81R WCI  22
GREYBULL       CLOUDY    36  26  67 NW25G32   29.81S WCI  24
WORLAND        PTSUNNY   35  23  61 N16G25    29.81F WCI  25
SHERIDAN       FAIR      37  25  61 NW29G39   29.76S WCI  25
BUFFALO        FAIR      34  21  59 NW32G49   29.72S WCI  20
GILLETTE       PTSUNNY   35  24  64 NW28G36   29.68R WCI  22
HULETT           N/A    N/A N/A N/A MISG        N/A
NEWCASTLE      FAIR      36  23  60 NW28G47   29.61R WCI  23

$$
WYZ014>020-022>026-101>103-222200-
CENTRAL WYOMING

CITY           SKY/WX    TMP DP  RH WIND       PRES   REMARKS
BIG PINEY      FAIR      31  16  54 N21G30    29.85R WCI  18
PINEDALE       FAIR      28  19  69 W20G26    29.83R WCI  15
DUBOIS         NOT AVBL
LANDER         CLOUDY    33  21  61 NW31G41   29.75F WCI  19
RIVERTON       CLOUDY    33  22  63 NW18      29.79S WCI  22
CASPER         FAIR      31  23  72 NW17G29   29.73S WCI  19
DOUGLAS        PTSUNNY   33  24  69 NW18G25   29.71R WCI  22

$$
WYZ021-027>030-104>119-222200-
SOUTHERN WYOMING

CITY           SKY/WX    TMP DP  RH WIND       PRES   REMARKS
EVANSTON       PTSUNNY   35  26  69 NW18G24   29.91S WCI  24
KEMMERER       LGT SNOW  30  23  74 NW28G39   29.88R VSB 3/4 WCI  16
FORT BRIDGER   FAIR      34  26  71 NW24G35   29.90F WCI  21
ROCK SPRINGS   PTSUNNY   30  18  60 NW18      29.81S WCI  18
DIXON          CLOUDY    29  25  87 N18G30    29.81R WCI  16
RAWLINS        CLOUDY    28  21  75 NW13G23   29.75S WCI  17
SARATOGA       CLOUDY    27  23  86 NW9       29.75S WCI  17
LARAMIE        CLOUDY    24  16  71 NW25G35   29.66S WCI   8
CHEYENNE       PTSUNNY   31  18  58 NW20G36   29.65S WCI  19
TORRINGTON     PTSUNNY  N/A N/A N/A NW26G35   29.64S
PINE BLUFFS    FAIR      34  28  80 NW16G25   29.66R WCI  23

$$



USA.gov is the U.S. government's official web portal to all federal, state and local government web resources and services.